📊 Raw Sensor Data

Showing records 41426 to 41450 of 84,982 total

ID Distance (ft) Battery V Battery A Int Temp (°F) Int Humid (%) Ext Temp (°F) Solar V RSSI SNR Time Stamp
43569 15.7 4.00 0 82 43 79 5.10 -69 8 06/15/2025 12:15 PM
43568 15.7 4.00 0 80 43 78 5.10 -68 8 06/15/2025 11:45 AM
43567 15.7 4.00 0 79 43 81 5.10 -68 8 06/15/2025 11:30 AM
43566 15.7 4.00 0 77 43 75 5.10 -68 8 06/15/2025 11:15 AM
43565 15.7 4.08 0 75 43 74 5.10 -69 8 06/15/2025 11:00 AM
43564 15.7 4.00 0 75 43 74 5.10 -69 7 06/15/2025 10:45 AM
43563 15.8 4.00 0 75 42 73 5.10 -67 8 06/15/2025 10:30 AM
43562 15.7 4.02 0 73 43 71 5.10 -67 8 06/15/2025 10:15 AM
43561 15.7 4.00 0 72 43 73 5.10 -68 7 06/15/2025 10:00 AM
43560 15.7 4.00 0 71 43 73 5.10 -68 7 06/15/2025 09:45 AM
43559 15.8 4.00 0 70 43 73 5.10 -67 8 06/15/2025 09:30 AM
43558 15.8 4.00 0 70 43 67 5.10 -69 9 06/15/2025 09:15 AM
43557 15.8 4.14 0 68 43 68 5.10 -67 8 06/15/2025 09:00 AM
43556 15.7 4.05 0 67 43 71 5.10 -67 8 06/15/2025 08:45 AM
43555 15.7 4.00 0 66 43 64 5.10 -68 8 06/15/2025 08:30 AM
43554 15.7 4.00 0 65 43 69 5.10 -68 7 06/15/2025 08:15 AM
43553 15.7 4.00 0 63 42 66 5.10 -68 7 06/15/2025 07:45 AM
43552 15.7 4.10 51 61 41 63 4.50 -68 8 06/15/2025 07:30 AM
43551 15.6 4.07 27 59 41 62 4.50 -67 8 06/15/2025 07:15 AM
43550 15.6 4.03 25 58 41 65 4.50 -67 8 06/15/2025 07:00 AM
43549 15.6 4.00 20 54 42 62 4.50 -68 8 06/15/2025 06:45 AM
43548 15.5 3.94 0 52 42 56 4.50 -66 8 06/15/2025 06:30 AM
43547 15.5 3.99 0 51 42 55 4.50 -66 8 06/15/2025 06:15 AM
43546 15.5 3.91 -8 50 42 53 4.50 -68 8 06/15/2025 06:00 AM
43545 15.4 3.91 -10 51 42 53 3.20 -68 8 06/15/2025 05:45 AM